Location: Unspecified
(0.0000°N, 0.0000°E)
Time: 06:22:49
(UTC+00:00)

deb Explorer IX - All Passes

Search period start: 26 November 2014 00:00
Search period end: 06 December 2014 00:00
Orbit: 558 x 1193 km, 38.8° (Epoch: 25 November)

Date Brightness Start Highest point End Pass type
(mag) Time Alt. Az. Time Alt. Az. Time Alt. Az.
26 Nov - 00:00:00 58° WSW 00:00:51 61° SW 00:08:30 10° SE night (unlit)
26 Nov - 01:46:27 10° WSW 01:49:56 13° SW 01:53:22 10° S visible
26 Nov - 10:59:51 10° SW 11:04:13 64° SE 11:08:18 10° ENE daylight
26 Nov - 12:51:09 10° NW 12:52:04 11° NW 12:53:00 10° NNW daylight
26 Nov - 21:59:08 10° NNW 22:05:46 40° NE 22:12:55 10° ESE night (unlit)
26 Nov - 23:47:13 10° WNW 23:54:28 48° SW 00:01:55 10° SSE night (unlit)
27 Nov - 01:43:12 10° SW 01:43:45 10° SW 01:44:17 10° SSW visible
27 Nov - 09:09:22 10° SSE 09:09:43 10° SE 09:10:05 10° SE daylight
27 Nov - 10:53:30 10° SW 10:57:58 84° NW 11:02:06 10° NE daylight
27 Nov - 21:52:31 10° NNW 21:59:21 50° NE 22:06:48 10° ESE night (unlit)
27 Nov - 23:41:12 10° WNW 23:48:05 38° SW 23:55:12 10° SSE night (unlit)
28 Nov - 09:00:49 10° S 09:03:34 15° SE 09:06:08 10° ESE daylight
28 Nov - 10:47:15 10° WSW 10:51:40 55° NW 10:55:44 10° NE daylight
28 Nov - 20:01:56 10° NNE 20:04:19 12° NE 20:06:47 10° ENE night (unlit)
28 Nov - 21:45:58 10° NW 21:52:53 63° NE 22:00:33 10° ESE night (unlit)
28 Nov - 23:35:18 10° W 23:41:42 30° SW 23:48:21 10° SSE night (unlit)
29 Nov - 08:53:35 10° SSW 08:57:21 21° SE 09:00:46 10° E daylight
29 Nov - 10:41:07 10° WSW 10:45:21 37° NW 10:49:13 10° NNE daylight
29 Nov - 19:54:14 10° N 19:57:57 16° NE 20:01:56 10° ENE visible
29 Nov - 21:39:29 10° NW 21:46:24 80° NE 21:54:09 10° SE night (unlit)
29 Nov - 23:29:32 10° W 23:35:19 24° SW 23:41:20 10° SSE night (unlit)
30 Nov - 08:46:36 10° SSW 08:51:05 30° SE 08:55:02 10° E daylight
30 Nov - 10:35:07 10° W 10:38:59 26° NW 10:42:32 10° NNE daylight
30 Nov - 19:47:00 10° N 19:51:31 20° NE 19:56:29 10° E visible
30 Nov - 21:33:05 10° NW 21:39:54 82° SW 21:47:37 10° SE night (unlit)
30 Nov - 23:23:59 10° WSW 23:28:57 19° SW 23:34:07 10° S night (unlit)
01 Dec - 08:39:47 10° SSW 08:44:46 42° SE 08:49:04 10° ENE daylight
01 Dec - 10:29:18 10° W 10:32:35 19° NW 10:35:38 10° N daylight
01 Dec - 19:40:00 10° NNW 19:45:02 25° NE 19:50:41 10° E visible
01 Dec - 21:26:44 10° WNW 21:33:24 65° SW 21:40:58 10° SE night (unlit)
01 Dec - 23:18:46 10° WSW 23:22:37 15° SW 23:26:35 10° S night (unlit)
02 Dec - 08:33:04 10° SW 08:38:24 61° SE 08:42:54 10° ENE daylight
02 Dec - 10:23:51 10° WNW 10:26:09 14° NW 10:28:21 10° NNW daylight
02 Dec - 19:33:07 10° NNW 19:38:30 32° NE 19:44:40 10° ESE visible
02 Dec - 21:20:29 10° WNW 21:26:53 50° SW 21:34:11 10° SE visible
02 Dec - 23:14:24 10° SW 23:16:17 11° SSW 23:18:12 10° SSW night (unlit)
03 Dec - 06:40:38 10° S 06:43:20 13° SSE 06:45:50 10° ESE daylight
03 Dec - 08:26:26 10° SW 08:31:58 87° SE 08:36:35 10° NE daylight
03 Dec - 19:26:20 10° NNW 19:31:55 41° NE 19:38:27 10° ESE visible
03 Dec - 21:14:19 10° WNW 21:20:23 39° SW 21:27:17 10° SSE visible
04 Dec - 06:32:56 10° S 06:37:00 18° SE 06:40:39 10° ESE daylight
04 Dec - 08:19:53 10° SW 08:25:28 67° NW 08:30:08 10° NE daylight
04 Dec - 19:19:38 10° NNW 19:25:19 53° NE 19:32:04 10° ESE visible
04 Dec - 21:08:16 10° W 21:13:54 30° SW 21:20:14 10° SSE visible
05 Dec - 06:25:36 10° SSW 06:30:36 25° SE 06:34:58 10° E daylight
05 Dec - 08:13:26 10° WSW 08:18:55 48° NW 08:23:31 10° NNE daylight
05 Dec - 19:13:00 10° NW 19:18:42 70° NE 19:25:32 10° SE visible
05 Dec - 21:02:23 10° W 21:07:25 24° SW 21:13:01 10° SSE visible
